Mars Hill, North Carolina, United States (28754)
Lat: 35.83N, Lon: 82.55W
Wx Zone: NCZ048
Local Info
Past Weather Observations for Today

NOTE: This archive is for the closest National Weather Service station to Mars Hill. Information may differ from the station used for current weather conditions.

Click here for Long-term Archive

Time Weather Temperature Dewpoint Humidity Pressure Winds Precip Visibility
14:54
Mostly Cloudy
34°F / 1°C 23°F / -5°C 65% 29.86 in
(1011 mb)
N 13.8 mph
(N 22 kph)
- 10SM
14:01
Mostly Cloudy
34°F / 1°C 21°F / -6°C 60% 29.86 in
(1011 mb)
N 16.1 mph
(N 26 kph)
- 10SM
13:54
Mostly Cloudy
36°F / 2°C 21°F / -6°C 56% 29.86 in
(1011 mb)
N 16.1 mph
(N 26 kph)
- 10SM
13:14
Partly Cloudy
36°F / 2°C 21°F / -6°C 56% 29.86 in
(1011 mb)
N 15 mph
(N 24 kph)
- 10SM
12:54
Mostly Cloudy
36°F / 2°C 21°F / -6°C 56% 29.86 in
(1011 mb)
N 11.5 mph
(N 19 kph)
- 10SM
12:01
Overcast
34°F / 1°C 23°F / -5°C 65% 29.86 in
(1011 mb)
N 16.1 mph
(N 26 kph)
- 10SM
11:54
Overcast
34°F / 1°C 23°F / -5°C 65% 29.86 in
(1011 mb)
NNW 15 mph
(NNW 24 kph)
- 10SM
11:20
Overcast
32°F / 0°C 21°F / -6°C 64% 29.89 in
(1012 mb)
N 16.1 mph
(N 26 kph)
- 10SM
10:54
Overcast
32°F / 0°C 23°F / -5°C 69% 29.86 in
(1011 mb)
N 13.8 mph
(N 22 kph)
- 10SM
09:54
Overcast
30°F / -1°C 23°F / -5°C 75% 29.83 in
(1010 mb)
N 13.8 mph
(N 22 kph)
0.00 in
(0.00 mm)
10SM
09:24
Overcast
30°F / -1°C 23°F / -5°C 75% 29.83 in
(1010 mb)
N 10.4 mph
(N 17 kph)
0.00 in
(0.00 mm)
10SM
09:01
Overcast
Light Snow
28°F / -2°C 23°F / -5°C 80% 29.83 in
(1010 mb)
N 10.4 mph
(N 17 kph)
0.00 in
(0.00 mm)
8SM
08:54
Overcast
Light Snow
28°F / -2°C 23°F / -5°C 80% 29.83 in
(1010 mb)
N 6.9 mph
(N 11 kph)
0.00 in
(0.00 mm)
7SM
08:33
Overcast
28°F / -2°C 23°F / -5°C 80% 29.83 in
(1010 mb)
N 9.2 mph
(N 15 kph)
0.00 in
(0.00 mm)
10SM
08:01
Overcast
28°F / -2°C 23°F / -5°C 80% 29.8 in
(1009 mb)
N 9.2 mph
(N 15 kph)
- 10SM
07:54
Overcast
28°F / -2°C 23°F / -5°C 80% 29.8 in
(1009 mb)
N 8.1 mph
(N 13 kph)
- 10SM
06:54
Overcast
28°F / -2°C 21°F / -6°C 74% 29.77 in
(1008 mb)
N 9.2 mph
(N 15 kph)
- 10SM
05:54
Overcast
28°F / -2°C 21°F / -6°C 74% 29.74 in
(1007 mb)
NNW 10.4 mph
(NNW 17 kph)
- 10SM
04:54
Overcast
28°F / -2°C 21°F / -6°C 74% 29.74 in
(1007 mb)
NNW 10.4 mph
(NNW 17 kph)
- 10SM
04:09
Overcast
28°F / -2°C 21°F / -6°C 74% 29.74 in
(1007 mb)
NNW 13.8 mph
(NNW 22 kph)
- 10SM
03:54
Overcast
28°F / -2°C 21°F / -6°C 74% 29.74 in
(1007 mb)
N 13.8 mph
(N 22 kph)
- 10SM
02:54
Mostly Cloudy
28°F / -2°C 21°F / -6°C 74% 29.77 in
(1008 mb)
N 13.8 mph
(N 22 kph)
- 10SM
01:54
Clear
28°F / -2°C 21°F / -6°C 74% 29.77 in
(1008 mb)
N 13.8 mph
(N 22 kph)
- 10SM
00:54
Clear
27°F / -3°C 19°F / -7°C 74% 29.77 in
(1008 mb)
N 12.7 mph
(N 20 kph)
- 10SM
Time Weather Temperature Dewpoint Humidity Pressure Winds Precip Visibility


Weather for websites

WeatherForYou.com, LLC is not responsible for any damages or problems caused by this service. Current weather conditions are obtained from the closest station including government and personal stations which may have varying degrees of accuracy. Weather forecasts are derived from the NOAA NDFD. Like all things, this site belongs to Jesus Christ... He just trusts me to maintain it. If you have any questions or comments email webmaster@weatherforyou.com

Copyright © 2015, WeatherForYou.com LLC. All rights reserved.